When you browse on this site, cookies collect data to enhance your experience and personalize the content and advertising you see.
Visit our Privacy Policy to learn more. By continuing to use the site, you agree to this use of cookies and data.
EN

Hourly Weather Pishky

Today, 9 July, Thursday

Time Temperature Precipitation Wind Pressure Humidity
00:00 +12°C° 0 mm 3 mps 747 mmHg 82%
01:00 +12°C° 0 mm 3 mps 747 mmHg 83%
02:00 +12°C° 0 mm 3 mps 747 mmHg 84%
03:00 +12°C° 0 mm 3 mps 747 mmHg 85%
04:00 +12°C° 0 mm 3 mps 748 mmHg 86%
05:00 +13°C° 0 mm 2 mps 748 mmHg 87%
06:00 +14°C° 0 mm 3 mps 748 mmHg 82%
07:00 +16°C° 0 mm 3 mps 748 mmHg 76%
08:00 +18°C° 0 mm 3 mps 749 mmHg 70%
09:00 +19°C° 0 mm 3 mps 749 mmHg 65%
10:00 +20°C° 0 mm 3 mps 749 mmHg 61%
11:00 +21°C° 0 mm 3 mps 750 mmHg 56%
12:00 +21°C° 0 mm 3 mps 750 mmHg 60%
13:00 +20°C° 0 mm 4 mps 750 mmHg 64%
14:00 +20°C° 0 mm 4 mps 750 mmHg 68%
15:00 +20°C° 0 mm 3 mps 750 mmHg 68%
16:00 +20°C° 0 mm 3 mps 749 mmHg 68%
17:00 +20°C° 0 mm 3 mps 749 mmHg 67%
18:00 +19°C° 0 mm 2 mps 749 mmHg 73%
19:00 +17°C° 0 mm 2 mps 749 mmHg 78%
20:00 +16°C° 0 mm 1 mps 749 mmHg 83%
21:00 +16°C° 0 mm 1 mps 750 mmHg 85%
22:00 +15°C° 0 mm 1 mps 750 mmHg 87%
23:00 +14°C° 0 mm 1 mps 750 mmHg 88%

Tomorrow, 10 July, Friday

Time Temperature Precipitation Wind Pressure Humidity
00:00 +14°C° 0 mm 1 mps 750 mmHg 89%
01:00 +13°C° 0 mm 0 mps 750 mmHg 89%
02:00 +12°C° 0 mm 0 mps 750 mmHg 89%
03:00 +13°C° 0 mm 0 mps 750 mmHg 90%
04:00 +14°C° 0 mm 1 mps 750 mmHg 90%
05:00 +14°C° 0 mm 1 mps 751 mmHg 90%
06:00 +16°C° 0 mm 1 mps 751 mmHg 84%
07:00 +18°C° 0 mm 2 mps 751 mmHg 79%
08:00 +20°C° 0 mm 2 mps 751 mmHg 73%
09:00 +21°C° 0 mm 2 mps 751 mmHg 68%
10:00 +23°C° 0 mm 2 mps 751 mmHg 64%
11:00 +25°C° 0 mm 3 mps 751 mmHg 59%
12:00 +25°C° 0 mm 3 mps 751 mmHg 57%
13:00 +26°C° 0 mm 2 mps 750 mmHg 55%
14:00 +27°C° 0 mm 2 mps 750 mmHg 54%
15:00 +27°C° 0 mm 2 mps 750 mmHg 55%
16:00 +27°C° 0 mm 2 mps 750 mmHg 57%
17:00 +27°C° 0 mm 2 mps 750 mmHg 59%
18:00 +25°C° 0 mm 2 mps 750 mmHg 65%
19:00 +23°C° 0 mm 2 mps 750 mmHg 70%
20:00 +21°C° 0 mm 2 mps 750 mmHg 75%
21:00 +20°C° 0 mm 2 mps 750 mmHg 76%
22:00 +19°C° 0 mm 2 mps 750 mmHg 77%
23:00 +19°C° 0 mm 3 mps 750 mmHg 79%

Day after tomorrow, 11 July, Saturday

Time Temperature Precipitation Wind Pressure Humidity
00:00 +18°C° 0 mm 3 mps 750 mmHg 79%
01:00 +18°C° 0 mm 3 mps 750 mmHg 79%
02:00 +18°C° 0 mm 3 mps 750 mmHg 79%
03:00 +17°C° 0 mm 3 mps 750 mmHg 80%
04:00 +17°C° 0 mm 3 mps 750 mmHg 81%
05:00 +17°C° 0 mm 2 mps 750 mmHg 82%
06:00 +19°C° 0 mm 3 mps 750 mmHg 78%
07:00 +21°C° 0 mm 3 mps 750 mmHg 73%
08:00 +24°C° 0 mm 3 mps 750 mmHg 69%
09:00 +25°C° 0 mm 3 mps 750 mmHg 64%
10:00 +27°C° 0 mm 3 mps 750 mmHg 60%
11:00 +28°C° 0 mm 3 mps 750 mmHg 55%
12:00 +28°C° 0 mm 3 mps 750 mmHg 54%
13:00 +29°C° 0 mm 3 mps 750 mmHg 53%
14:00 +29°C° 0 mm 3 mps 750 mmHg 52%
15:00 +29°C° 0 mm 3 mps 749 mmHg 53%
16:00 +29°C° 0 mm 2 mps 749 mmHg 55%
17:00 +28°C° 0 mm 2 mps 749 mmHg 57%
18:00 +26°C° 0 mm 2 mps 749 mmHg 62%
19:00 +24°C° 0 mm 2 mps 749 mmHg 66%
20:00 +21°C° 0 mm 2 mps 749 mmHg 71%
21:00 +21°C° 0 mm 2 mps 749 mmHg 71%
22:00 +20°C° 0 mm 2 mps 749 mmHg 71%
23:00 +19°C° 0 mm 2 mps 749 mmHg 71%

12 July, Sunday

Time Temperature Precipitation Wind Pressure Humidity
00:00 +19°C° 0 mm 2 mps 748 mmHg 72%
01:00 +19°C° 0 mm 1 mps 748 mmHg 72%
02:00 +19°C° 0 mm 1 mps 748 mmHg 73%
03:00 +19°C° 0 mm 1 mps 748 mmHg 75%
04:00 +18°C° 0 mm 1 mps 748 mmHg 77%
05:00 +18°C° 0 mm 1 mps 747 mmHg 78%
06:00 +20°C° 0 mm 1 mps 747 mmHg 74%
07:00 +22°C° 0 mm 1 mps 747 mmHg 69%
08:00 +24°C° 0 mm 2 mps 747 mmHg 64%
09:00 +25°C° 0 mm 2 mps 747 mmHg 60%
10:00 +26°C° 0 mm 2 mps 747 mmHg 55%
11:00 +27°C° 0 mm 2 mps 747 mmHg 50%
12:00 +28°C° 0 mm 2 mps 747 mmHg 49%
13:00 +28°C° 0 mm 2 mps 746 mmHg 48%
14:00 +28°C° 0 mm 2 mps 746 mmHg 46%
15:00 +28°C° 0 mm 2 mps 746 mmHg 48%
16:00 +28°C° 0 mm 2 mps 745 mmHg 50%
17:00 +28°C° 0 mm 2 mps 745 mmHg 52%
18:00 +26°C° 0 mm 2 mps 745 mmHg 55%
19:00 +24°C° 0 mm 1 mps 744 mmHg 58%
20:00 +22°C° 0 mm 1 mps 744 mmHg 62%
21:00 +21°C° 0 mm 1 mps 744 mmHg 63%
22:00 +21°C° 0 mm 1 mps 744 mmHg 64%
23:00 +20°C° 0 mm 1 mps 744 mmHg 65%

13 July, Monday

Time Temperature Precipitation Wind Pressure Humidity
00:00 +20°C° 0 mm 1 mps 743 mmHg 68%
01:00 +19°C° 0 mm 1 mps 743 mmHg 70%
02:00 +19°C° 0 mm 1 mps 743 mmHg 72%
03:00 +19°C° 0 mm 1 mps 743 mmHg 74%
04:00 +17°C° 0 mm 0 mps 742 mmHg 76%
05:00 +17°C° 0 mm 0 mps 742 mmHg 77%
06:00 +20°C° 0 mm 1 mps 742 mmHg 73%
07:00 +22°C° 0 mm 1 mps 743 mmHg 69%
08:00 +24°C° 0 mm 2 mps 743 mmHg 65%
09:00 +24°C° 0.1 mm 3 mps 743 mmHg 66%
10:00 +25°C° 0.1 mm 4 mps 743 mmHg 67%
11:00 +25°C° 0.1 mm 5 mps 743 mmHg 69%
12:00 +25°C° 0.1 mm 5 mps 743 mmHg 70%
13:00 +23°C° 0.1 mm 6 mps 743 mmHg 72%
14:00 +22°C° 0.1 mm 6 mps 742 mmHg 73%
15:00 +22°C° 0 mm 6 mps 742 mmHg 74%
16:00 +21°C° 0 mm 6 mps 742 mmHg 76%
17:00 +20°C° 0 mm 7 mps 742 mmHg 77%
18:00 +19°C° 0 mm 6 mps 742 mmHg 78%
19:00 +17°C° 0 mm 6 mps 743 mmHg 79%
20:00 +16°C° 0 mm 5 mps 743 mmHg 80%
21:00 +15°C° 0 mm 5 mps 743 mmHg 81%
22:00 +14°C° 0 mm 5 mps 742 mmHg 82%
23:00 +13°C° 0 mm 5 mps 742 mmHg 83%

14 July, Tuesday

Time Temperature Precipitation Wind Pressure Humidity
00:00 +13°C° 0 mm 5 mps 742 mmHg 85%
01:00 +12°C° 0 mm 5 mps 742 mmHg 87%
02:00 +11°C° 0 mm 4 mps 742 mmHg 89%
03:00 +11°C° 0 mm 4 mps 742 mmHg 89%
04:00 +11°C° 0 mm 4 mps 742 mmHg 89%
05:00 +11°C° 0 mm 4 mps 742 mmHg 89%
06:00 +12°C° 0 mm 4 mps 742 mmHg 84%
07:00 +13°C° 0 mm 5 mps 742 mmHg 78%
08:00 +15°C° 0 mm 5 mps 742 mmHg 73%
09:00 +15°C° 0 mm 5 mps 742 mmHg 71%
10:00 +16°C° 0 mm 5 mps 742 mmHg 70%
11:00 +16°C° 0 mm 6 mps 742 mmHg 69%
12:00 +17°C° 0.1 mm 6 mps 742 mmHg 67%
13:00 +19°C° 0.1 mm 6 mps 742 mmHg 66%
14:00 +18°C° 0.1 mm 7 mps 742 mmHg 64%
15:00 +18°C° 0.1 mm 7 mps 742 mmHg 66%
16:00 +17°C° 0.1 mm 7 mps 741 mmHg 68%
17:00 +17°C° 0.1 mm 7 mps 741 mmHg 70%
18:00 +16°C° 0 mm 7 mps 741 mmHg 73%
19:00 +15°C° 0 mm 6 mps 741 mmHg 77%
20:00 +14°C° 0 mm 6 mps 741 mmHg 80%
21:00 +14°C° 0 mm 6 mps 741 mmHg 81%
22:00 +14°C° 0 mm 7 mps 741 mmHg 82%
23:00 +14°C° 0 mm 7 mps 741 mmHg 83%
Show more